Probability
0 0 0 0 0 0 0 0 0 0 0 0 0 0 0 0 0 0 0 0 0 0 0 0 0 0 0 0 0 0 0 0 0 0 0 0 0 0
0 0 0 0 0 0 0 0 0 0 0 0 0 0 0 0 0 0 0 0 0 0 0 0 0 0 0 0 0 0 0 0 0 0 0 0 0 0
0 0 0 0 0 0 0 0 0 0 0 0 0 0 0 0 0 0 0 0 0 0 0 0 0 0 0 0 0 0 0 0 0 0 0 0 0 0
0 0 0 0 0 0 0 0 0 0 0 0 0 0 0 0 0 0 0 0 0 0 0 0 0 0 0 0 0 0 0 0 0 0 0 0 0 0
0 0 0 0 0 0 0 0 0 0 0 0 0 0 0 0 0 0 0 0 0 0 0 0 0 0 0 0 0 0 0 0 0 0 0 0 0 0
0 0 0 0 0 0 0 0 0 0 0 0 0 0 0 0 0 0 0 0 0 0 0 0 0 0 0 0 0 0 0 0 0 0 0 0 0 0
0 0 0 0 0 0 0 0 0 0 0 0 0 0 0 0 0 0 0 0 0 0 0 0 0 0 0 0 0 0 0 0 0 0 0 0 0 0
0 0 0 0 0 0 0 0 0 0 0 0 0 0 0 0 0 0 0 0 0 0 0 0 0 0 0 0 0 0 0 0 0 0 0 0 0 0
0 0 0 0 0 0 0 0 0 0 0 0 0 0 0 0 0 0 0 0 0 0 0 0 0 0 0 0 0 0 0 0 0 0 0 0 0 0
0 0 0 0 0 0 0 0 0 0 0 0 0 0 0 0 0 0 0 0 0 0 0 0 0 0 0 0 0 0 0 0 0 0 0 0 0 0
0 0 0 0 0 0 0 0 0 0 0 0 0 0 0 0 0 0 0 0 0 0 0 0 0 0 0 0 0 0 0 0 0 0 0 0 0 0
0 0 0 0 0 0 0 0 0 0 0 0 0 0 0 0 0 0 0 0 0 0 0 0 0 0 0 0 0 0 0 0 0 0 0 0 0 0
0 0 0 0 0 0 0 0 0 0 0 0 0 0 0 0 0 0 0 0 0 0 0 0 0 0 0 0 0 0 0 0 0 0 0 0 0 0
0 0 0 0 0 0 0 0 0 0 0 0 0 0 0 0 0 0 0 0 0 0 0 0 0 0 0 0 0 0 0 0 0 0 0 0 0 0
0 0 0 0 0 0 0 0 0 0 0 0 0 0 0 0 0 0 0 0 0 0 0 0 0 0 0 0 0 0 0 0 0 0 0 0 0 0
0 0 0 0 0 0 0 0 0 0 0 0 0 0 0 0 0 0 0 0 0 0 0 0 0 0 0 0 0 0 0 0 0 0 0 0 0 0
0 0 0 0 0 0 0 0 0 0 0 0 0 0 0 0 0 0 0 0 0 0 0 0 0 0 0 0 0 0 0 0 0 0 0 0 0 0
0 0 0 0 0 0 0 0 0 0 0 0 0 0 0 0 0 0 0 0 0 0 0 0 0 0 0 0 0 0 0 0 0 0 0 0 0 0
0 0 0 0 0 0 0 0 0 0 0 0 0 0 0 0 0 0 0 0 0 0 0 0 0 0 0 0 0 0 0 0 0 0 0 0 0 0
0 0 0 0 0 0 0 0 0 0 0 0 0 0 0 0 0 0 0 0 0 0 0 0 0 0 0 0 0 0 0 0 0 0 0 0 0 0
0 0 0 0 0 0 0 0 0 0 0 0 0 0 0 0 0 0 0 0 0 0 0 0 0 0 0 0 0 0 0 0 0 0 0 0 0 0
0 0 0 0 0 0 0 0 0 0 0 0 0 0 0 0 0 0 0 0 0 0 0 0 0 0 0 0 0 0 0 0 0 0 0 0 0 0
0 0 0 0 0 0 0 0 0 0 0 0 0 0 0 0 0 0 0 0 0 0 0 0 0 0 0 0 0 0 0 0 0 0 0 0 0 0
Wind_Speed
3 3 2 2 2 2 2 3 3 3 3 3 2 3 2 2 4 2 3 5 5 5 5 4 4 4 4 5 6 6 6 6 6 7 7 7 7 8
3 4 3 2 2 2 2 2 2 3 3 2 2 2 2 2 4 3 3 5 5 6 6 5 6 6 6 6 7 7 7 7 8 8 8 8 8 9
3 4 4 3 3 2 2 2 2 2 2 1 0 1 2 3 2 2 2 2 2 6 7 7 7 7 7 7 8 8 8 8 8 8 8 8 9 9
4 4 4 3 3 3 3 3 2 2 3 3 1 1 2 3 3 3 2 2 2 5 7 7 8 8 7 8 8 8 8 8 8 8 8 9 9 10
4 4 4 4 4 3 3 3 3 2 2 3 2 1 1 2 2 2 2 1 2 4 6 7 8 7 7 8 8 8 8 9 9 8 9 9 9 10
3 3 4 4 5 4 3 3 3 2 2 2 2 1 1 1 2 2 2 2 2 2 4 5 7 8 8 8 8 8 8 8 9 9 8 8 9 10
2 2 3 4 4 4 3 3 3 3 2 2 2 2 2 2 3 2 2 2 2 2 2 3 3 3 4 7 8 8 9 9 9 9 9 9 10 11
2 2 2 3 4 5 5 5 5 5 5 4 3 4 4 4 3 3 2 2 3 2 2 3 2 3 4 4 8 10 9 9 10 10 10 10 11 11
2 2 2 2 2 3 4 5 6 7 8 5 5 5 5 5 4 3 3 3 4 3 2 3 3 4 4 5 9 9 10 10 10 10 10 11 11 12
2 2 3 2 2 3 3 3 3 3 5 5 5 5 4 4 5 4 4 3 2 2 2 3 3 3 3 3 8 9 10 10 10 10 11 11 11 11
2 2 2 3 4 4 3 3 3 3 3 4 4 4 6 6 5 3 2 2 3 3 2 3 2 2 2 3 5 8 8 9 10 11 11 11 11 10
2 2 3 4 5 5 4 4 5 4 3 2 2 3 3 4 6 5 4 4 3 3 3 3 2 1 2 2 2 2 3 7 9 10 11 11 11 6
2 2 2 4 5 5 5 4 6 4 3 3 2 2 2 2 3 3 3 4 4 4 3 2 2 2 2 3 2 2 2 2 3 5 8 11 11 9
2 2 2 4 5 5 4 4 4 3 2 2 2 2 2 2 2 2 3 3 3 4 4 3 2 3 2 3 3 2 2 2 2 3 3 7 9 11
2 3 3 4 3 3 4 4 3 2 2 3 3 3 2 2 2 1 1 1 1 2 2 2 3 3 3 4 3 2 2 3 3 3 3 3 4 4
1 2 2 2 2 2 2 2 2 3 3 3 2 2 1 1 2 2 2 1 1 2 1 2 3 3 3 3 4 4 3 3 2 3 3 4 3 3
1 1 0 0 0 0 0 0 1 1 2 1 2 2 2 1 1 1 1 1 2 2 2 1 1 2 3 3 4 5 4 4 3 3 3 4 4 4
1 1 1 1 1 1 1 1 1 1 1 1 1 2 2 2 1 1 1 2 2 2 2 2 1 1 1 3 6 5 4 4 3 3 3 4 6 4
0 1 1 1 1 1 1 1 1 0 0 1 1 1 1 2 2 2 2 2 2 3 2 2 2 2 3 4 4 5 4 3 3 3 3 4 6 5
0 0 1 1 1 1 1 0 1 0 0 1 1 1 2 2 2 2 2 2 2 3 2 2 3 3 4 4 4 3 5 4 3 4 4 4 5 7
1 1 1 1 1 1 1 1 1 1 1 1 1 1 1 2 2 2 2 4 3 3 3 4 3 4 2 1 3 4 3 5 6 4 4 4 5 5
1 1 1 1 1 1 1 1 1 1 1 1 1 1 1 2 2 3 3 3 3 3 3 3 2 2 2 3 4 5 5 4 5 8 8 7 4 4
1 2 2 1 1 1 1 1 1 1 1 1 2 2 2 2 2 2 2 3 2 3 2 2 2 2 3 4 4 4 5 5 3 3 4 7 10 12
Wind_Direction
200 197 196 196 192 200 191 177 175 203 230 220 218 215 192 177 189 191 194 208 217 222 226 228 234 226 227 234 236 240 243 250 257 260 264 268 275 279
201 203 204 198 193 193 203 202 192 189 218 209 207 206 189 182 190 189 203 208 218 221 224 227 231 228 229 236 238 238 241 248 253 256 261 267 273 279
208 207 213 200 198 201 200 201 204 185 207 233 200 180 179 185 185 187 194 195 213 228 229 229 229 231 233 237 238 239 241 246 250 256 264 270 274 278
210 206 213 202 205 202 196 202 208 199 185 207 214 196 204 196 183 190 203 205 198 228 234 233 232 232 237 239 239 239 241 245 250 256 264 269 273 277
208 206 207 198 206 204 199 203 207 210 190 186 202 202 205 191 175 199 212 221 222 227 233 233 230 231 236 238 241 243 243 244 248 254 260 266 273 278
203 202 202 204 205 199 201 203 196 193 183 180 189 192 196 204 168 194 229 222 234 237 238 236 235 239 239 241 243 246 245 245 248 254 258 265 273 277
205 205 206 207 207 201 198 191 185 187 187 193 202 200 198 191 202 199 215 226 242 234 234 234 227 228 230 240 244 245 246 247 251 257 261 267 272 276
201 209 211 206 206 208 208 201 196 196 200 202 213 211 216 204 191 195 196 211 253 232 201 239 212 229 229 225 241 248 248 250 254 257 262 268 272 275
197 203 221 218 200 200 209 212 217 220 216 210 213 219 213 204 192 202 204 216 232 216 198 246 227 236 235 238 247 254 255 253 255 259 263 269 272 276
205 203 205 208 204 194 192 206 227 234 227 222 218 223 221 204 197 203 207 220 267 243 192 238 236 235 242 236 244 251 258 259 259 261 265 271 274 276
215 213 210 209 215 203 195 210 231 248 246 228 223 221 216 213 204 188 191 201 248 252 215 212 237 245 248 243 242 250 258 262 262 264 268 274 277 280
227 222 226 230 223 210 204 205 221 229 212 218 226 233 226 219 217 209 198 207 226 245 218 192 213 204 278 263 236 240 251 264 270 273 275 277 279 276
238 239 235 236 238 231 228 222 227 224 206 208 218 225 226 223 224 219 209 206 213 234 212 183 201 204 223 266 266 242 233 244 259 272 277 280 280 276
243 248 246 242 244 241 238 235 228 221 198 197 210 222 222 225 223 216 216 222 225 231 219 201 209 205 221 254 268 262 254 249 248 260 263 279 280 279
261 265 267 255 252 245 241 233 219 203 195 201 214 226 223 220 212 218 229 225 259 258 231 222 215 212 216 236 253 256 276 271 246 247 261 265 265 269
304 285 285 273 281 260 238 229 223 205 201 208 214 220 210 208 215 213 216 202 239 284 275 244 226 209 226 237 242 256 249 255 263 260 264 270 267 259
293 320 277 233 250 276 307 283 210 187 201 201 198 200 210 214 224 216 206 204 222 242 258 264 256 246 232 229 246 250 252 254 252 257 265 276 271 261
290 211 234 241 233 233 231 270 265 210 205 188 188 199 209 215 222 223 219 217 231 242 243 237 233 285 299 271 233 243 248 252 255 251 250 271 281 274
277 225 233 237 242 250 246 253 271 255 188 183 192 199 203 214 220 222 221 225 236 244 242 230 221 217 248 273 270 221 230 252 264 266 257 256 271 277
353 263 263 262 245 239 245 275 288 283 252 220 211 206 205 215 225 228 225 230 245 250 247 232 224 221 228 247 265 265 240 241 247 264 272 272 272 278
336 330 309 283 266 246 247 244 245 243 240 236 229 224 219 224 232 234 235 245 253 249 248 246 239 236 226 235 265 271 264 250 252 253 263 279 289 291
323 314 303 289 278 253 242 238 241 242 236 235 236 232 227 226 230 235 237 241 248 249 256 261 242 220 211 232 253 268 279 285 278 276 269 255 260 267
315 308 299 296 288 270 245 241 245 245 240 233 223 225 227 232 236 238 243 248 252 256 262 265 262 245 239 238 249 261 271 280 283 287 280 280 277 276